Home   Weather   Harrisburg   Past weeks

Flag for USA Past Weather in Harrisburg, Pennsylvania, USA — Yesterday and Last 2 Weeks

Now
40 °F

Light rain. Overcast.


Feels Like: 29 °F
Forecast: 37 / 46 °F
Wind: 24 mph from East

Location: Capital City Airport

Current Time: Jan 23, 2017 at 12:23:35 pm

Latest Report: Jan 23, 2017 at 11:56 am


Visibility: 10 mi

Pressure: 29.60 "Hg

Humidity: 80%

Dew Point: 34 °F

Location of HarrisburgLocation

Past Weather in Harrisburg — Graph

°F

Harrisburg Temperature Yesterday

Maximum temperature yesterday: 49 °F (at 9:27 pm)
Minimum temperature yesterday: 43 °F (at 6:56 am)
Average temperature yesterday: 46 °F

High & Low Weather Summary for the Past Weeks

 TemperatureHumidityPressure
High66 °F (Jan 12, 5:56 pm)97% (Jan 20, 11:33 pm)30.76 "Hg (Jan 20, 11:33 pm)
Low13 °F (Jan 9, 3:56 am)29% (Jan 8, 2:56 pm)29.64 "Hg (Jan 23, 10:56 am)
Average38 °F73%30.17 "Hg
* Reported Jan 8 10:56 am — Jan 23 10:56 am, Harrisburg, Weather by CustomWeather, © 2017

Note: Actual official high and low records may vary slightly from our data, if they occured in-between our weather recording intervals... More about our weather records

Advertising

Harrisburg Weather History for the Previous 24 Hours

Scroll right to see more
 ConditionsComfort  
Time TempWeatherWind HumidityBarometerVisibility
10:56 am
Mon, Jan 23
41 °FLight rain. Overcast.22 mph82%29.64 "Hg10 mi
10:02 am42 °FOvercast.17 mph82%29.65 "Hg5 mi
9:56 am42 °FLight rain. Mostly cloudy.17 mph82%29.66 "Hg2 mi
9:30 am42 °FLight rain. More clouds than sun.21 mph82%29.65 "Hg2 mi
8:56 am42 °FLight rain. Fog.20 mph85%29.67 "Hg2 mi
8:28 am42 °FLight rain. Fog.20 mph85%29.67 "Hg2 mi
7:56 am43 °FLight rain. Overcast.18 mph82%29.66 "Hg9 mi
6:56 am44 °FOvercast.21 mph82%29.65 "Hg7 mi
5:56 am44 °FLight rain. Fog.20 mph85%29.66 "Hg4 mi
4:56 am45 °FOvercast.20 mph82%29.67 "Hg10 mi
3:56 am46 °FOvercast.22 mph79%29.67 "Hg7 mi
2:56 am47 °FOvercast.9 mph83%29.69 "Hg9 mi
2:23 am47 °FOvercast.14 mph80%29.68 "Hg10 mi
12:56 am48 °FOvercast.14 mph83%29.69 "Hg10 mi
11:56 pm
Sun, Jan 22
48 °FMostly cloudy.13 mph83%29.70 "Hg10 mi
10:56 pm49 °FFog.5 mph93%29.69 "Hg4 mi
10:16 pm49 °FRain. Fog.9 mph93%29.68 "Hg2 mi
9:56 pm49 °FLight rain. Fog.7 mph90%29.69 "Hg2 mi
9:27 pm49 °FLight rain. Fog.6 mph90%29.68 "Hg2 mi
8:56 pm48 °FLight rain. Fog.3 mph93%29.68 "Hg1 mi
8:16 pm48 °FFog.3 mph89%29.68 "Hg1 mi
7:56 pm48 °FFog.3 mph89%29.67 "Hg2 mi
6:56 pm48 °FFog.No wind86%29.69 "Hg4 mi
5:56 pm47 °FFog.7 mph90%29.67 "Hg4 mi
4:56 pm47 °FFog.6 mph90%29.65 "Hg4 mi
3:56 pm47 °FFog.No wind86%29.69 "Hg3 mi
2:56 pm47 °FFog.5 mph86%29.66 "Hg3 mi
1:56 pm47 °FFog.No wind86%29.66 "Hg2 mi
1:42 pm47 °FFog.No wind90%29.67 "Hg1 mi
1:03 pm46 °FFog.3 mph86%29.65 "Hg1 mi
12:11 pm45 °FFog.No wind90%29.70 "Hg1 mi
Weather by CustomWeather, © 2017

See weather overviewHow to use our weather pages